Terug naar catalogus

STARLINK-2121

ActiefCommunicatieVLEO
NORAD 47399·PAYLOAD·🇺🇸 United States

Gelanceerd Jan 20, 2021 vanaf Cape Canaveral Space Force Station

Loading…

Volgende Passages (komende 24 uur)

TLE

VersSource: CelesTrak SupGP

Epoch: Sep 14, 2026, 21:07 UTC

1 47399C 21005BC  26257.88034722  .00049655  00000+0  15972-2 0  2577
2 47399  53.1592 236.2425 0001259  98.5817 227.5139 15.31668050    13

Volg STARLINK-2121 in realtime met AllMySat

Download on the App Store